�������l�o���
Date,Time,MP-1(��Sv/h),MP-2(��Sv/h),MP-3(��Sv/h),MP-4(��Sv/h),MP-5(��Sv/h),MP-6(��Sv/h),MP-7(��Sv/h),MP-8(��Sv/h),����,����(m/s),���J
2019/11/21,00:00,0.731,1.058,0.698,1.315,0.925,0.413,0.724,0.686,��,1.4,��
2019/11/21,00:10,0.731,1.058,0.699,1.312,0.926,0.413,0.723,0.686,��,1.8,��
2019/11/21,00:20,0.731,1.059,0.698,1.311,0.925,0.413,0.724,0.686,��,2.9,��
2019/11/21,00:30,0.731,1.058,0.698,1.314,0.925,0.413,0.725,0.687,���쐼,0.5,��
2019/11/21,00:40,0.733,1.059,0.696,1.311,0.925,0.413,0.724,0.686,���k��,1.5,��
2019/11/21,00:50,0.732,1.060,0.698,1.315,0.926,0.414,0.723,0.686,��,1.4,��
2019/11/21,01:00,0.731,1.061,0.699,1.313,0.925,0.413,0.723,0.687,��쐼,1.0,��
2019/11/21,01:10,0.732,1.057,0.697,1.311,0.925,0.415,0.724,0.686,��,1.4,��
2019/11/21,01:20,0.730,1.059,0.698,1.314,0.926,0.413,0.725,0.686,��,1.9,��
2019/11/21,01:30,0.732,1.059,0.699,1.314,0.924,0.414,0.722,0.687,���k��,2.8,��
2019/11/21,01:40,0.731,1.060,0.698,1.313,0.924,0.413,0.723,0.687,�k��,3.0,��
2019/11/21,01:50,0.732,1.057,0.697,1.312,0.925,0.414,0.723,0.686,���k��,3.0,��
2019/11/21,02:00,0.730,1.057,0.698,1.312,0.926,0.413,0.725,0.688,�k��,2.4,��
2019/11/21,02:10,0.730,1.057,0.697,1.314,0.922,0.414,0.724,0.685,���k��,2.1,��
2019/11/21,02:20,0.731,1.058,0.696,1.313,0.926,0.414,0.725,0.687,�k��,1.7,��
2019/11/21,02:30,0.733,1.059,0.698,1.315,0.922,0.412,0.724,0.687,�k��,1.4,��
2019/11/21,02:40,0.730,1.058,0.697,1.313,0.925,0.414,0.724,0.687,�k��,1.0,��
2019/11/21,02:50,0.731,1.059,0.697,1.315,0.924,0.413,0.723,0.687,�k��,1.9,��
2019/11/21,03:00,0.732,1.060,0.698,1.314,0.923,0.413,0.723,0.685,�k��,1.5,��
2019/11/21,03:10,0.733,1.059,0.699,1.313,0.922,0.412,0.722,0.686,�k��,1.5,��
2019/11/21,03:20,0.732,1.057,0.698,1.314,0.923,0.412,0.723,0.686,���k��,0.9,��
2019/11/21,03:30,0.733,1.057,0.699,1.315,0.924,0.413,0.722,0.686,���k��,0.8,��
2019/11/21,03:40,0.730,1.055,0.699,1.311,0.923,0.414,0.723,0.687,���k��,1.0,��
2019/11/21,03:50,0.730,1.056,0.699,1.315,0.923,0.412,0.723,0.686,�k��,1.1,��
2019/11/21,04:00,0.731,1.057,0.697,1.313,0.921,0.413,0.722,0.685,�k��,1.0,��
2019/11/21,04:10,0.732,1.057,0.696,1.315,0.924,0.414,0.723,0.685,�쐼,0.7,��
2019/11/21,04:20,0.732,1.057,0.697,1.314,0.922,0.412,0.724,0.688,���쐼,0.9,��
2019/11/21,04:30,0.732,1.057,0.697,1.315,0.923,0.413,0.724,0.684,��,1.2,��
2019/11/21,04:40,0.731,1.060,0.698,1.313,0.924,0.412,0.724,0.685,��,1.3,��
2019/11/21,04:50,0.731,1.056,0.699,1.312,0.924,0.414,0.724,0.686,���쐼,2.2,��
2019/11/21,05:00,0.733,1.058,0.697,1.314,0.923,0.413,0.723,0.687,�쐼,3.0,��
2019/11/21,05:10,0.731,1.059,0.697,1.312,0.923,0.414,0.723,0.686,�쐼,2.3,��
2019/11/21,05:20,0.731,1.057,0.697,1.312,0.923,0.414,0.724,0.686,�쐼,2.1,��
2019/11/21,05:30,0.732,1.057,0.695,1.311,0.924,0.413,0.723,0.684,���쐼,2.2,��
2019/11/21,05:40,0.731,1.058,0.698,1.313,0.922,0.413,0.723,0.686,���k��,2.5,��
2019/11/21,05:50,0.732,1.059,0.697,1.314,0.925,0.414,0.724,0.685,�k��,3.4,��
2019/11/21,06:00,0.732,1.055,0.697,1.313,0.923,0.413,0.725,0.686,�k�k��,3.2,��
2019/11/21,06:10,0.731,1.056,0.698,1.311,0.924,0.412,0.722,0.687,�k�k��,2.1,��
2019/11/21,06:20,0.730,1.056,0.696,1.313,0.925,0.412,0.724,0.685,�k��,3.2,��
2019/11/21,06:30,0.731,1.056,0.696,1.313,0.922,0.412,0.723,0.687,���k��,3.4,��
2019/11/21,06:40,0.729,1.054,0.694,1.309,0.921,0.413,0.723,0.686,���k��,3.1,��
2019/11/21,06:50,0.731,1.056,0.697,1.311,0.922,0.413,0.724,0.686,�k��,3.9,��
2019/11/21,07:00,0.732,1.059,0.697,1.311,0.922,0.411,0.723,0.687,�k��,3.4,��
2019/11/21,07:10,0.731,1.054,0.697,1.314,0.924,0.413,0.723,0.687,�k��,4.1,��
2019/11/21,07:20,0.731,1.053,0.697,1.311,0.925,0.413,0.723,0.688,�k��,4.1,��
2019/11/21,07:30,0.732,1.053,0.695,1.312,0.921,0.411,0.723,0.687,�k��,3.8,��
2019/11/21,07:40,0.730,1.056,0.695,1.315,0.924,0.414,0.724,0.687,���k��,2.5,��
2019/11/21,07:50,0.733,1.054,0.695,1.313,0.924,0.412,0.724,0.687,���쐼,1.6,��
2019/11/21,08:00,0.731,1.059,0.697,1.312,0.924,0.412,0.724,0.687,��쐼,1.6,��
2019/11/21,08:10,0.732,1.060,0.697,1.314,0.923,0.413,0.724,0.687,��쐼,2.0,��
2019/11/21,08:20,0.732,1.059,0.698,1.314,0.924,0.411,0.726,0.689,��쓌,1.5,��
2019/11/21,08:30,0.733,1.058,0.698,1.313,0.923,0.413,0.726,0.687,��,0.7,��
2019/11/21,08:40,0.732,1.058,0.697,1.311,0.923,0.412,0.723,0.688,��쐼,1.0,��
2019/11/21,08:50,0.735,1.055,0.695,1.314,0.926,0.414,0.725,0.687,�쐼,1.1,��
2019/11/21,09:00,0.734,1.057,0.697,1.312,0.925,0.414,0.726,0.687,�쐼,1.7,��
2019/11/21,09:10,0.734,1.055,0.699,1.313,0.926,0.415,0.725,0.689,���쐼,0.8,��
2019/11/21,09:20,0.734,1.055,0.696,1.312,0.925,0.414,0.725,0.688,��쐼,2.0,��
2019/11/21,09:30,0.732,1.057,0.699,1.313,0.927,0.414,0.725,0.688,���쐼,1.0,��
2019/11/21,09:40,0.735,1.053,0.698,1.314,0.924,0.413,0.725,0.687,�쐼,2.3,��
2019/11/21,09:50,0.733,1.055,0.695,1.312,0.924,0.413,0.725,0.688,�쐼,2.2,��
2019/11/21,10:00,0.734,1.055,0.698,1.311,0.925,0.416,0.724,0.688,�쐼,1.8,��
2019/11/21,10:10,0.732,1.054,0.698,1.314,0.922,0.414,0.725,0.688,��쓌,2.6,��
2019/11/21,10:20,0.732,1.058,0.697,1.316,0.925,0.415,0.723,0.687,��쓌,3.6,��
2019/11/21,10:30,0.733,1.057,0.697,1.314,0.925,0.414,0.723,0.686,�쓌,4.1,��
2019/11/21,10:40,0.736,1.058,0.699,1.313,0.926,0.414,0.724,0.687,�쓌,3.5,��
2019/11/21,10:50,0.732,1.058,0.697,1.313,0.924,0.414,0.725,0.686,���쓌,3.2,��
2019/11/21,11:00,0.734,1.058,0.698,1.316,0.926,0.414,0.723,0.687,���쓌,2.6,��
2019/11/21,11:10,0.734,1.057,0.699,1.314,0.923,0.414,0.724,0.687,���쓌,3.2,��
2019/11/21,11:20,0.734,1.058,0.697,1.315,0.925,0.413,0.724,0.685,��,2.5,��
2019/11/21,11:30,0.733,1.056,0.698,1.315,0.927,0.414,0.723,0.686,��,1.4,��
2019/11/21,11:40,0.734,1.055,0.700,1.317,0.926,0.415,0.725,0.688,���쓌,2.6,��
2019/11/21,11:50,0.732,1.061,0.700,1.314,0.926,0.413,0.726,0.688,��,3.3,��
2019/11/21,12:00,0.733,1.056,0.697,1.316,0.926,0.415,0.724,0.687,��,2.8,��
2019/11/21,12:10,0.733,1.059,0.700,1.314,0.927,0.414,0.723,0.688,���k��,2.7,��
2019/11/21,12:20,0.733,1.061,0.697,1.314,0.926,0.415,0.724,0.689,��,3.2,��
2019/11/21,12:30,0.732,1.062,0.699,1.314,0.924,0.415,0.725,0.687,��,3.3,��
2019/11/21,12:40,0.733,1.058,0.699,1.316,0.924,0.414,0.726,0.687,���쓌,3.1,��
2019/11/21,12:50,0.732,1.058,0.697,1.314,0.923,0.415,0.725,0.688,��,2.7,��
2019/11/21,13:00,0.733,1.060,0.696,1.315,0.926,0.414,0.724,0.685,���k��,2.3,��
2019/11/21,13:10,0.731,1.060,0.695,1.315,0.925,0.415,0.725,0.688,��,2.9,��
2019/11/21,13:20,0.734,1.057,0.697,1.315,0.924,0.415,0.725,0.688,���k��,2.1,��
2019/11/21,13:30,0.733,1.058,0.697,1.315,0.925,0.414,0.726,0.685,���쓌,1.8,��
2019/11/21,13:40,0.734,1.060,0.699,1.316,0.925,0.414,0.725,0.687,��,1.5,��
2019/11/21,13:50,0.733,1.059,0.699,1.313,0.926,0.415,0.725,0.684,��,1.5,��
2019/11/21,14:00,0.730,1.056,0.699,1.316,0.926,0.415,0.726,0.685,�쓌,0.9,��
2019/11/21,14:10,0.731,1.057,0.700,1.315,0.928,0.414,0.726,0.687,��쓌,0.8,��
2019/11/21,14:20,0.733,1.057,0.698,1.318,0.928,0.415,0.726,0.688,��,1.0,��
2019/11/21,14:30,0.732,1.060,0.700,1.317,0.928,0.415,0.726,0.688,-,CALM,��
2019/11/21,14:40,0.734,1.060,0.697,1.314,0.927,0.415,0.725,0.689,�k��,1.3,��
2019/11/21,14:50,0.735,1.060,0.699,1.316,0.928,0.415,0.725,0.687,���k��,2.1,��
2019/11/21,15:00,0.735,1.063,0.699,1.315,0.927,0.414,0.726,0.688,�k��,2.8,��
2019/11/21,15:10,0.733,1.065,0.702,1.317,0.928,0.413,0.727,0.688,���k��,4.1,��
2019/11/21,15:20,0.733,1.061,0.700,1.314,0.928,0.415,0.725,0.686,�k��,4.5,��
2019/11/21,15:30,0.735,1.064,0.701,1.314,0.928,0.415,0.724,0.688,�k��,5.2,��
2019/11/21,15:40,0.735,1.065,0.700,1.314,0.927,0.413,0.725,0.687,�k��,5.2,��
2019/11/21,15:50,0.733,1.060,0.699,1.315,0.927,0.415,0.727,0.686,�k��,6.0,��
2019/11/21,16:00,0.732,1.064,0.700,1.314,0.927,0.415,0.725,0.686,�k��,7.1,��
2019/11/21,16:10,0.731,1.060,0.699,1.315,0.925,0.414,0.724,0.685,���k��,6.0,��
2019/11/21,16:20,0.733,1.063,0.700,1.314,0.928,0.413,0.725,0.686,�k��,5.5,��
2019/11/21,16:30,0.732,1.062,0.699,1.314,0.931,0.414,0.724,0.686,�k��,6.9,��
2019/11/21,16:40,0.730,1.064,0.699,1.312,0.925,0.413,0.727,0.688,�k��,6.6,��
2019/11/21,16:50,0.731,1.064,0.699,1.314,0.928,0.413,0.726,0.686,���k��,6.3,��
2019/11/21,17:00,0.733,1.065,0.699,1.313,0.927,0.413,0.729,0.687,���k��,4.4,��
2019/11/21,17:10,0.732,1.062,0.699,1.314,0.927,0.416,0.727,0.686,���k��,5.2,��
2019/11/21,17:20,0.732,1.062,0.699,1.314,0.925,0.413,0.725,0.685,���k��,6.4,��
2019/11/21,17:30,0.732,1.062,0.700,1.316,0.928,0.414,0.726,0.686,���k��,5.2,��
2019/11/21,17:40,0.731,1.064,0.699,1.313,0.927,0.413,0.726,0.685,���k��,6.3,��
2019/11/21,17:50,0.731,1.062,0.699,1.317,0.926,0.414,0.724,0.687,���k��,6.7,��
2019/11/21,18:00,0.730,1.063,0.700,1.317,0.926,0.413,0.725,0.686,���k��,6.6,��
2019/11/21,18:10,0.730,1.062,0.701,1.313,0.926,0.413,0.724,0.687,���k��,6.3,��
2019/11/21,18:20,0.730,1.063,0.700,1.314,0.926,0.414,0.725,0.686,���k��,4.9,��
2019/11/21,18:30,0.732,1.064,0.697,1.313,0.925,0.412,0.724,0.686,���k��,4.9,��
2019/11/21,18:40,0.732,1.062,0.701,1.311,0.926,0.412,0.726,0.687,���k��,3.6,��
2019/11/21,18:50,0.732,1.063,0.701,1.316,0.927,0.413,0.726,0.686,���k��,4.3,��
2019/11/21,19:00,0.731,1.063,0.700,1.311,0.924,0.411,0.725,0.686,���k��,5.5,��
2019/11/21,19:10,0.731,1.062,0.698,1.314,0.925,0.412,0.725,0.687,���k��,4.7,��
2019/11/21,19:20,0.731,1.062,0.702,1.314,0.925,0.413,0.725,0.686,���k��,4.4,��
2019/11/21,19:30,0.731,1.061,0.698,1.314,0.926,0.412,0.725,0.687,���k��,4.2,��
2019/11/21,19:40,0.731,1.063,0.700,1.314,0.925,0.412,0.724,0.687,���k��,4.2,��
2019/11/21,19:50,0.731,1.060,0.698,1.314,0.927,0.413,0.723,0.687,��,4.1,��
2019/11/21,20:00,0.731,1.061,0.699,1.313,0.927,0.413,0.725,0.688,��,3.4,��
2019/11/21,20:10,0.731,1.062,0.701,1.315,0.926,0.412,0.725,0.687,���k��,2.2,��
2019/11/21,20:20,0.730,1.062,0.699,1.314,0.926,0.414,0.726,0.686,���k��,4.0,��
2019/11/21,20:30,0.733,1.059,0.699,1.312,0.927,0.413,0.726,0.686,���k��,5.8,��
2019/11/21,20:40,0.730,1.059,0.700,1.316,0.924,0.414,0.724,0.687,���k��,5.6,��
2019/11/21,20:50,0.729,1.065,0.701,1.314,0.923,0.413,0.724,0.685,��,4.4,��
2019/11/21,21:00,0.730,1.062,0.697,1.315,0.924,0.414,0.724,0.688,��,4.0,��
2019/11/21,21:10,0.729,1.062,0.698,1.313,0.925,0.413,0.724,0.687,��,2.9,��
2019/11/21,21:20,0.729,1.063,0.698,1.315,0.927,0.413,0.724,0.687,���k��,1.0,��
2019/11/21,21:30,0.730,1.061,0.699,1.315,0.926,0.413,0.724,0.689,���k��,0.9,��
2019/11/21,21:40,0.730,1.061,0.699,1.313,0.927,0.412,0.724,0.688,�k�k��,0.6,��
2019/11/21,21:50,0.730,1.061,0.696,1.314,0.927,0.413,0.725,0.686,�k�k��,0.5,��
2019/11/21,22:00,0.729,1.061,0.698,1.315,0.925,0.412,0.725,0.686,�k�k��,0.7,��
2019/11/21,22:10,0.730,1.059,0.697,1.313,0.927,0.413,0.723,0.685,�k�k��,1.4,��
2019/11/21,22:20,0.730,1.059,0.699,1.315,0.926,0.412,0.725,0.687,�k��,1.5,��
2019/11/21,22:30,0.731,1.059,0.698,1.312,0.928,0.414,0.722,0.686,-,CALM,��
2019/11/21,22:40,0.731,1.059,0.698,1.316,0.926,0.412,0.723,0.685,��,1.3,��
2019/11/21,22:50,0.731,1.060,0.699,1.313,0.924,0.412,0.724,0.687,���k��,1.9,��
2019/11/21,23:00,0.732,1.059,0.698,1.312,0.925,0.413,0.724,0.686,���k��,1.7,��
2019/11/21,23:10,0.731,1.059,0.697,1.314,0.924,0.413,0.723,0.686,���k��,1.5,��
2019/11/21,23:20,0.731,1.059,0.698,1.314,0.922,0.411,0.722,0.686,�k��,1.4,��
2019/11/21,23:30,0.730,1.057,0.698,1.312,0.926,0.412,0.724,0.685,�k��,1.8,��
2019/11/21,23:40,0.730,1.058,0.698,1.314,0.925,0.412,0.723,0.686,�k��,2.3,��
2019/11/21,23:50,0.729,1.059,0.698,1.315,0.925,0.412,0.723,0.684,�k��,3.3,��
